KLM695 EHAM-CYYZ

Flight info

Callsign KLM695
Flight time N/A
Altitude 36000
Route BERGI L602 NALAX L46 GETNO DCT REMSI DCT NIBOG/N0469F380 DCT PIKIL/M082F390 DCT 57N020W 57N030W 57N040W 56N050W DCT JANJO/N0484F400 DCT ALKOB DCT YBC DCT POLTY IMEBA9
Aircraft B772/H-SDE2E3FGHIJ5LORVWXY/LB1D1

Departure

Time 2026-05-05 08:15
Airport Amsterdam Airport Schiphol (EHAM)

Arrival

Time N/A
Airport Toronto Pearson International Airport (CYYZ)
Time Latitude Longitude Altitude Speed Heading
2026-05-05 07:32 52.31276 4.76053 3 ft 0 kts 110°
2026-05-05 07:58 52.31278 4.76046 3 ft 2 kts 107°
2026-05-05 07:59 52.31280 4.76022 3 ft 2 kts 86°
2026-05-05 07:59 52.31278 4.75998 3 ft 2 kts 70°
2026-05-05 07:59 52.31271 4.75976 3 ft 2 kts 54°
2026-05-05 07:59 52.31257 4.75953 3 ft 2 kts 32°
2026-05-05 08:00 52.31248 4.75945 3 ft 2 kts 21°
2026-05-05 08:00 52.31234 4.75939 3 ft 2 kts
2026-05-05 08:00 52.31219 4.75940 3 ft 2 kts 350°
2026-05-05 08:00 52.31205 4.75944 3 ft 1 kts 351°
2026-05-05 08:01 52.31206 4.75944 3 ft 2 kts 354°
2026-05-05 08:01 52.31223 4.75944 3 ft 0 kts
2026-05-05 08:01 52.31230 4.75943 3 ft 0 kts 355°
2026-05-05 08:03 52.31231 4.75943 3 ft 0 kts 355°
2026-05-05 08:04 52.31269 4.75938 3 ft 10 kts 355°
2026-05-05 08:04 52.31345 4.75929 3 ft 11 kts 355°
2026-05-05 08:04 52.31428 4.75918 3 ft 12 kts 356°
2026-05-05 08:04 52.31510 4.75906 3 ft 8 kts 324°
2026-05-05 08:05 52.31524 4.75807 3 ft 10 kts 271°
2026-05-05 08:05 52.31522 4.75685 3 ft 11 kts 268°
2026-05-05 08:05 52.31516 4.75550 3 ft 12 kts 266°
2026-05-05 08:05 52.31511 4.75399 4 ft 14 kts 268°
2026-05-05 08:06 52.31506 4.75217 4 ft 17 kts 268°
2026-05-05 08:06 52.31498 4.75003 4 ft 19 kts 266°
2026-05-05 08:06 52.31491 4.74781 4 ft 19 kts 268°
2026-05-05 08:06 52.31482 4.74555 4 ft 20 kts 266°
2026-05-05 08:07 52.31475 4.74341 3 ft 11 kts 272°
2026-05-05 08:07 52.31532 4.74295 3 ft 10 kts
2026-05-05 08:07 52.31614 4.74300 3 ft 13 kts
2026-05-05 08:07 52.31726 4.74308 3 ft 18 kts
2026-05-05 08:08 52.31864 4.74319 2 ft 21 kts
2026-05-05 08:08 52.32008 4.74335 2 ft 14 kts 358°
2026-05-05 08:08 52.32031 4.74202 2 ft 14 kts 271°
2026-05-05 08:08 52.32037 4.74036 2 ft 15 kts 274°
2026-05-05 08:09 52.32045 4.73856 2 ft 16 kts 273°
2026-05-05 08:09 52.32051 4.73669 2 ft 17 kts 273°
2026-05-05 08:09 52.32057 4.73470 2 ft 17 kts 274°
2026-05-05 08:09 52.32120 4.73310 2 ft 17 kts 320°
2026-05-05 08:10 52.32215 4.73177 2 ft 17 kts 319°
2026-05-05 08:10 52.32311 4.73040 2 ft 18 kts 320°
2026-05-05 08:10 52.32408 4.72902 3 ft 18 kts 317°
2026-05-05 08:10 52.32506 4.72763 3 ft 18 kts 318°
2026-05-05 08:11 52.32605 4.72621 3 ft 19 kts 320°
2026-05-05 08:11 52.32704 4.72479 3 ft 13 kts 316°
2026-05-05 08:11 52.32711 4.72469 3 ft 0 kts 315°
2026-05-05 08:11 52.32780 4.72325 3 ft 3 kts 315°
2026-05-05 08:12 52.32827 4.72246 3 ft 14 kts 314°
2026-05-05 08:12 52.32896 4.72113 3 ft 15 kts 310°
2026-05-05 08:12 52.32970 4.71974 3 ft 16 kts 312°
2026-05-05 08:12 52.33048 4.71833 3 ft 17 kts 312°
2026-05-05 08:13 52.33130 4.71683 2 ft 17 kts 305°
2026-05-05 08:13 52.33138 4.71493 3 ft 17 kts 237°
2026-05-05 08:13 52.33039 4.71359 3 ft 18 kts 223°
2026-05-05 08:13 52.32942 4.71214 3 ft 19 kts 223°
2026-05-05 08:14 52.32869 4.71076 2 ft 13 kts 249°
2026-05-05 08:14 52.32868 4.70926 2 ft 11 kts 279°
2026-05-05 08:14 52.32919 4.70891 2 ft 9 kts
2026-05-05 08:14 52.33096 4.70906 2 ft 54 kts
2026-05-05 08:15 52.33719 4.70962 2 ft 121 kts
2026-05-05 08:15 52.34738 4.71047 15 ft 170 kts
2026-05-05 08:15 52.35941 4.71160 545 ft 174 kts 10°
2026-05-05 08:15 52.37154 4.71316 1306 ft 174 kts
2026-05-05 08:16 52.38374 4.71404 1702 ft 185 kts
2026-05-05 08:16 52.39730 4.71522 1971 ft 202 kts
2026-05-05 08:16 52.41190 4.71659 2297 ft 219 kts
2026-05-05 08:16 52.42766 4.71423 2640 ft 239 kts 345°
2026-05-05 08:17 52.44246 4.70054 3133 ft 254 kts 322°
2026-05-05 08:17 52.45529 4.67984 3793 ft 259 kts 317°
2026-05-05 08:17 52.46784 4.65878 4451 ft 261 kts 317°
2026-05-05 08:17 52.48066 4.63761 5108 ft 263 kts 317°
2026-05-05 08:18 52.49352 4.61652 5761 ft 265 kts 317°
2026-05-05 08:18 52.50665 4.59503 6384 ft 268 kts 316°
2026-05-05 08:18 52.52056 4.57477 6993 ft 270 kts 327°
2026-05-05 08:18 52.53666 4.55873 7624 ft 271 kts 331°
2026-05-05 08:19 52.55312 4.54343 8242 ft 274 kts 331°
2026-05-05 08:19 52.56959 4.52808 8836 ft 276 kts 330°
2026-05-05 08:19 52.58648 4.51224 9418 ft 279 kts 330°
2026-05-05 08:19 52.60323 4.49643 9994 ft 281 kts 330°
2026-05-05 08:20 52.62042 4.48025 10331 ft 293 kts 330°
2026-05-05 08:20 52.63857 4.46316 10537 ft 309 kts 330°
2026-05-05 08:20 52.65773 4.44509 10749 ft 326 kts 330°
2026-05-05 08:20 52.67809 4.42586 10994 ft 341 kts 330°
2026-05-05 08:21 52.69889 4.40618 11222 ft 356 kts 330°
2026-05-05 08:21 52.72083 4.38524 11583 ft 366 kts 328°
2026-05-05 08:21 52.74119 4.35949 12138 ft 370 kts 317°
2026-05-05 08:21 52.75806 4.32765 12804 ft 372 kts 305°
2026-05-05 08:22 52.77158 4.29134 13452 ft 374 kts 300°
2026-05-05 08:22 52.78451 4.25362 14097 ft 377 kts 299°
2026-05-05 08:22 52.79735 4.21584 14771 ft 380 kts 299°
2026-05-05 08:22 52.81023 4.17783 15422 ft 383 kts 298°
2026-05-05 08:23 52.82310 4.13978 16082 ft 386 kts 298°
2026-05-05 08:23 52.83623 4.10092 16705 ft 390 kts 298°
2026-05-05 08:23 52.84944 4.06173 17370 ft 393 kts 298°
2026-05-05 08:23 52.86285 4.02190 18038 ft 394 kts 297°
2026-05-05 08:24 52.87609 3.98248 18628 ft 398 kts 297°
2026-05-05 08:24 52.88962 3.94215 19228 ft 401 kts 297°
2026-05-05 08:24 52.90313 3.90178 19823 ft 404 kts 297°
2026-05-05 08:24 52.91678 3.86096 20386 ft 408 kts 297°
2026-05-05 08:25 52.93050 3.81983 20945 ft 411 kts 297°
2026-05-05 08:25 52.94428 3.77848 21532 ft 414 kts 297°
2026-05-05 08:25 52.95829 3.73636 22052 ft 418 kts 297°
2026-05-05 08:25 52.97240 3.69387 22579 ft 421 kts 297°
2026-05-05 08:26 52.98654 3.65124 23083 ft 425 kts 297°
2026-05-05 08:26 53.00082 3.60814 23589 ft 428 kts 297°
2026-05-05 08:26 53.01513 3.56486 24114 ft 431 kts 297°
2026-05-05 08:26 53.02952 3.52122 24626 ft 433 kts 296°
2026-05-05 08:27 53.04398 3.47725 25097 ft 437 kts 297°
2026-05-05 08:27 53.05855 3.43290 25572 ft 440 kts 296°
2026-05-05 08:27 53.07318 3.38826 26029 ft 443 kts 297°
2026-05-05 08:27 53.08794 3.34302 26452 ft 447 kts 295°
2026-05-05 08:28 53.10039 3.29536 26880 ft 447 kts 287°
2026-05-05 08:28 53.10851 3.24602 27304 ft 449 kts 281°
2026-05-05 08:28 53.11541 3.19492 27738 ft 451 kts 281°
2026-05-05 08:28 53.12217 3.14408 28132 ft 454 kts 281°
2026-05-05 08:29 53.12896 3.09272 28529 ft 457 kts 281°
2026-05-05 08:29 53.13583 3.04063 28900 ft 460 kts 281°
2026-05-05 08:29 53.14263 2.98889 29284 ft 462 kts 281°
2026-05-05 08:30 53.15627 2.88455 30228 ft 462 kts 281°
2026-05-05 08:30 53.16297 2.83301 30733 ft 461 kts 281°
2026-05-05 08:30 53.16974 2.78077 31203 ft 459 kts 281°
2026-05-05 08:30 53.17647 2.72859 31601 ft 460 kts 281°
2026-05-05 08:31 53.18306 2.67736 31953 ft 460 kts 281°
2026-05-05 08:31 53.18979 2.62484 32293 ft 461 kts 281°
2026-05-05 08:31 53.19639 2.57312 32638 ft 461 kts 281°
2026-05-05 08:31 53.20306 2.52062 32981 ft 462 kts 281°
2026-05-05 08:32 53.20964 2.46868 33350 ft 462 kts 281°
2026-05-05 08:32 53.21620 2.41676 33710 ft 461 kts 281°
2026-05-05 08:32 53.22281 2.36414 34067 ft 461 kts 281°
2026-05-05 08:32 53.22896 2.31505 34378 ft 462 kts 280°
2026-05-05 08:33 53.23544 2.26308 34731 ft 461 kts 281°
2026-05-05 08:33 53.24199 2.21040 35002 ft 462 kts 281°
2026-05-05 08:33 53.24847 2.15811 35276 ft 462 kts 281°
2026-05-05 08:33 53.25493 2.10579 35570 ft 460 kts 281°
2026-05-05 08:34 53.26136 2.05345 35816 ft 460 kts 280°
2026-05-05 08:34 53.26770 2.00162 35942 ft 461 kts 281°
2026-05-05 08:34 53.27404 1.94964 35962 ft 461 kts 281°
2026-05-05 08:35 53.28673 1.84497 35986 ft 459 kts 281°
2026-05-05 08:35 53.29929 1.74059 35984 ft 460 kts 281°
2026-05-05 08:36 53.31174 1.63626 35991 ft 460 kts 281°
2026-05-05 08:36 53.32413 1.53155 35993 ft 462 kts 281°
2026-05-05 08:37 53.33822 1.42743 35984 ft 462 kts 283°
2026-05-05 08:37 53.35377 1.32225 35999 ft 463 kts 282°
2026-05-05 08:38 53.36892 1.21821 35995 ft 462 kts 282°
2026-05-05 08:38 53.38390 1.11415 35999 ft 464 kts 282°
2026-05-05 08:39 53.39895 1.00858 35990 ft 466 kts 282°
2026-05-05 08:39 53.41375 0.90397 35990 ft 465 kts 282°
2026-05-05 08:40 53.42848 0.79900 35997 ft 464 kts 282°
2026-05-05 08:40 53.44309 0.69421 35983 ft 463 kts 282°
2026-05-05 08:41 53.45765 0.58893 35986 ft 462 kts 282°
2026-05-05 08:41 53.47205 0.48412 35990 ft 462 kts 282°
2026-05-05 08:42 53.48620 0.38033 35995 ft 461 kts 282°
2026-05-05 08:42 53.50053 0.27456 36004 ft 461 kts 282°
2026-05-05 08:43 53.51462 0.16969 35996 ft 463 kts 283°
2026-05-05 08:43 53.52854 0.06545 35998 ft 457 kts 283°
2026-05-05 08:44 53.54239 -0.03904 36000 ft 460 kts 283°
2026-05-05 08:44 53.55615 -0.14362 36005 ft 456 kts 283°
2026-05-05 08:45 53.56971 -0.24749 36005 ft 459 kts 283°
2026-05-05 08:45 53.58329 -0.35222 36006 ft 457 kts 283°
2026-05-05 08:46 53.59682 -0.45737 35997 ft 457 kts 283°
2026-05-05 08:46 53.61010 -0.56137 35998 ft 456 kts 283°
2026-05-05 08:47 53.62334 -0.66580 36000 ft 456 kts 282°
2026-05-05 08:47 53.63650 -0.77040 35994 ft 455 kts 282°
2026-05-05 08:48 53.64945 -0.87406 35996 ft 455 kts 282°
2026-05-05 08:48 53.66239 -0.97850 35994 ft 455 kts 282°
2026-05-05 08:49 53.67522 -1.08278 35993 ft 454 kts 282°
2026-05-05 08:49 53.68798 -1.18739 35992 ft 455 kts 282°
2026-05-05 08:50 53.70065 -1.29193 35993 ft 455 kts 281°
2026-05-05 08:50 53.71312 -1.39574 35995 ft 454 kts 281°
2026-05-05 08:51 53.72562 -1.50066 35995 ft 455 kts 282°
2026-05-05 08:51 53.73791 -1.60498 35995 ft 455 kts 281°
2026-05-05 08:52 53.74942 -1.71032 36000 ft 454 kts 280°
2026-05-05 08:52 53.76066 -1.81437 35995 ft 454 kts 280°
2026-05-05 08:53 53.77190 -1.91899 35995 ft 455 kts 280°
2026-05-05 08:53 53.78313 -2.02436 35987 ft 454 kts 280°
2026-05-05 08:54 53.79421 -2.12911 35986 ft 455 kts 280°
2026-05-05 08:54 53.80521 -2.23402 35984 ft 454 kts 280°
2026-05-05 08:55 53.81616 -2.33944 35986 ft 455 kts 280°
2026-05-05 08:55 53.82705 -2.44518 35989 ft 454 kts 280°
2026-05-05 08:56 53.83769 -2.54939 36004 ft 453 kts 280°
2026-05-05 08:56 53.84830 -2.65424 36009 ft 453 kts 279°
2026-05-05 08:57 53.85889 -2.75997 36018 ft 454 kts 279°
2026-05-05 08:57 53.86931 -2.86488 36020 ft 454 kts 279°
2026-05-05 08:58 53.87974 -2.97082 36024 ft 455 kts 279°
2026-05-05 08:58 53.89000 -3.07614 36026 ft 455 kts 279°
2026-05-05 08:59 53.90019 -3.18164 36026 ft 455 kts 279°
2026-05-05 08:59 53.91029 -3.28731 36022 ft 454 kts 279°
2026-05-05 09:00 53.92028 -3.39281 36021 ft 453 kts 279°
2026-05-05 09:00 53.93015 -3.49802 36016 ft 453 kts 279°
2026-05-05 09:01 53.93996 -3.60374 36013 ft 453 kts 279°
2026-05-05 09:01 53.94960 -3.70861 36013 ft 453 kts 278°
2026-05-05 09:02 53.95947 -3.81382 36010 ft 453 kts 282°
2026-05-05 09:02 53.97802 -3.91611 36020 ft 453 kts 288°
2026-05-05 09:03 53.99805 -4.01726 36030 ft 453 kts 288°
2026-05-05 09:03 54.01783 -4.11780 36039 ft 453 kts 288°
2026-05-05 09:04 54.03760 -4.21895 36044 ft 452 kts 288°
2026-05-05 09:04 54.05725 -4.32007 36044 ft 451 kts 288°
2026-05-05 09:05 54.08013 -4.43854 36048 ft 452 kts 288°
2026-05-05 09:05 54.09629 -4.52262 36047 ft 451 kts 288°
2026-05-05 09:06 54.11575 -4.62441 36046 ft 451 kts 287°
2026-05-05 09:06 54.13516 -4.72653 36052 ft 450 kts 287°
2026-05-05 09:07 54.15422 -4.82734 36038 ft 449 kts 287°
2026-05-05 09:07 54.17335 -4.92901 36042 ft 451 kts 287°
2026-05-05 09:08 54.19234 -5.03050 36039 ft 451 kts 287°
2026-05-05 09:08 54.21139 -5.13288 36037 ft 451 kts 287°
2026-05-05 09:09 54.23022 -5.23466 36032 ft 451 kts 287°
2026-05-05 09:09 54.24900 -5.33674 36038 ft 451 kts 287°
2026-05-05 09:10 54.26763 -5.43850 36038 ft 450 kts 287°
2026-05-05 09:10 54.28619 -5.54043 36045 ft 449 kts 287°
2026-05-05 09:11 54.30448 -5.64151 36040 ft 448 kts 287°
2026-05-05 09:11 54.32297 -5.74422 36042 ft 449 kts 286°
2026-05-05 09:12 54.34118 -5.84594 36040 ft 451 kts 286°
2026-05-05 09:12 54.35937 -5.94816 36050 ft 450 kts 286°
2026-05-05 09:13 54.37759 -6.05106 36049 ft 449 kts 286°
2026-05-05 09:13 54.39562 -6.15351 36044 ft 450 kts 286°
2026-05-05 09:14 54.41357 -6.25607 36053 ft 449 kts 286°
2026-05-05 09:14 54.43133 -6.35816 36057 ft 449 kts 286°
2026-05-05 09:15 54.44912 -6.46101 36059 ft 449 kts 286°
2026-05-05 09:15 54.46673 -6.56340 36053 ft 450 kts 286°
2026-05-05 09:16 54.48429 -6.66606 36062 ft 451 kts 285°
2026-05-05 09:16 54.50201 -6.77032 36067 ft 451 kts 286°
2026-05-05 09:17 54.51600 -6.85301 36058 ft 449 kts 286°
2026-05-05 09:17 54.53338 -6.95633 36054 ft 450 kts 286°
2026-05-05 09:18 54.55070 -7.05990 36056 ft 449 kts 286°
2026-05-05 09:18 54.56775 -7.16250 36056 ft 449 kts 286°
2026-05-05 09:19 54.58493 -7.26649 36060 ft 450 kts 286°
2026-05-05 09:19 54.60190 -7.36977 36065 ft 450 kts 286°
2026-05-05 09:20 54.61883 -7.47349 36058 ft 451 kts 286°
2026-05-05 09:20 54.63576 -7.57782 36070 ft 451 kts 286°
2026-05-05 09:21 54.65250 -7.68164 36077 ft 450 kts 285°
2026-05-05 09:21 54.66922 -7.78592 36082 ft 450 kts 285°
2026-05-05 09:22 54.68579 -7.88996 36085 ft 450 kts 285°
2026-05-05 09:22 54.70232 -7.99437 36076 ft 450 kts 285°
2026-05-05 09:23 54.71873 -8.09871 36070 ft 449 kts 285°
2026-05-05 09:23 54.73504 -8.20306 36073 ft 450 kts 285°
2026-05-05 09:24 54.75128 -8.30758 36080 ft 449 kts 285°
2026-05-05 09:24 54.76543 -8.39918 36086 ft 451 kts 285°
2026-05-05 09:25 54.78151 -8.50393 36093 ft 450 kts 285°
2026-05-05 09:25 54.79742 -8.60825 36094 ft 450 kts 285°
2026-05-05 09:26 54.81327 -8.71288 36103 ft 451 kts 284°
2026-05-05 09:26 54.82910 -8.81799 36112 ft 450 kts 284°
2026-05-05 09:27 54.84473 -8.92254 36116 ft 450 kts 284°
2026-05-05 09:27 54.86034 -9.02756 36114 ft 450 kts 284°
2026-05-05 09:28 54.87580 -9.13226 36113 ft 450 kts 284°
2026-05-05 09:28 54.89120 -9.23730 36120 ft 449 kts 284°
2026-05-05 09:29 54.90645 -9.34194 36123 ft 450 kts 284°
2026-05-05 09:29 54.92178 -9.44792 36119 ft 450 kts 284°
2026-05-05 09:30 54.93686 -9.55282 36121 ft 450 kts 284°
2026-05-05 09:30 54.95185 -9.65778 36128 ft 450 kts 284°
2026-05-05 09:31 54.96682 -9.76339 36131 ft 449 kts 284°
2026-05-05 09:31 54.98167 -9.86886 36128 ft 449 kts 284°
2026-05-05 09:32 54.99637 -9.97395 36129 ft 449 kts 284°
2026-05-05 09:32 55.01467 -10.07726 36141 ft 449 kts 292°
2026-05-05 09:33 55.03863 -10.17828 36186 ft 455 kts 292°
2026-05-05 09:33 55.05045 -10.22922 36388 ft 454 kts 292°
2026-05-05 09:33 55.06200 -10.27965 36778 ft 451 kts 292°
2026-05-05 09:33 55.07346 -10.33017 37122 ft 449 kts 291°
2026-05-05 09:34 55.08487 -10.38083 37363 ft 449 kts 291°
2026-05-05 09:34 55.09623 -10.43158 37547 ft 450 kts 291°
2026-05-05 09:34 55.10754 -10.48241 37753 ft 450 kts 291°
2026-05-05 09:34 55.11876 -10.53306 38005 ft 449 kts 291°
2026-05-05 09:35 55.12993 -10.58366 38131 ft 450 kts 291°
2026-05-05 09:35 55.16342 -10.73640 38139 ft 448 kts 291°
2026-05-05 09:36 55.18565 -10.83850 38141 ft 448 kts 291°
2026-05-05 09:36 55.20759 -10.93979 38141 ft 449 kts 290°
2026-05-05 09:37 55.22952 -11.04161 38145 ft 449 kts 290°
2026-05-05 09:37 55.25142 -11.14376 38142 ft 449 kts 290°
2026-05-05 09:38 55.27314 -11.24563 38141 ft 449 kts 290°
2026-05-05 09:38 55.29493 -11.34832 38141 ft 449 kts 290°
2026-05-05 09:39 55.31648 -11.45039 38143 ft 449 kts 290°
2026-05-05 09:39 55.33799 -11.55282 38146 ft 448 kts 290°
2026-05-05 09:40 55.35942 -11.65537 38146 ft 448 kts 290°
2026-05-05 09:40 55.38086 -11.75847 38149 ft 449 kts 290°
2026-05-05 09:41 55.40202 -11.86079 38153 ft 450 kts 290°
2026-05-05 09:41 55.42325 -11.96394 38149 ft 449 kts 290°
2026-05-05 09:42 55.44433 -12.06688 38158 ft 448 kts 290°
2026-05-05 09:42 55.46532 -12.16993 38160 ft 448 kts 290°
2026-05-05 09:43 55.48609 -12.27249 38156 ft 448 kts 290°
2026-05-05 09:43 55.50687 -12.37554 38156 ft 449 kts 290°
2026-05-05 09:44 55.52758 -12.47881 38166 ft 449 kts 290°
2026-05-05 09:44 55.54823 -12.58235 38169 ft 449 kts 290°
2026-05-05 09:45 55.56878 -12.68594 38177 ft 449 kts 289°
2026-05-05 09:45 55.58923 -12.78956 38176 ft 449 kts 289°
2026-05-05 09:46 55.60964 -12.89351 38187 ft 450 kts 289°
2026-05-05 09:46 55.63004 -12.99797 38188 ft 449 kts 289°
2026-05-05 09:47 55.65025 -13.10203 38188 ft 450 kts 289°
2026-05-05 09:47 55.67049 -13.20680 38194 ft 449 kts 289°
2026-05-05 09:48 55.69051 -13.31101 38191 ft 448 kts 289°
2026-05-05 09:48 55.71051 -13.41574 38190 ft 449 kts 289°
2026-05-05 09:49 55.73031 -13.51988 38192 ft 450 kts 289°
2026-05-05 09:49 55.75015 -13.62487 38189 ft 448 kts 289°
2026-05-05 09:50 55.76982 -13.72957 38192 ft 448 kts 288°
2026-05-05 09:50 55.78939 -13.83424 38192 ft 448 kts 288°
2026-05-05 09:51 55.80891 -13.93924 38195 ft 449 kts 288°
2026-05-05 09:51 55.82835 -14.04446 38197 ft 449 kts 288°
2026-05-05 09:52 55.84772 -14.14982 38192 ft 449 kts 288°
2026-05-05 09:52 55.86695 -14.25506 38193 ft 449 kts 288°
2026-05-05 09:53 55.88615 -14.36068 38194 ft 448 kts 288°
2026-05-05 09:53 55.90509 -14.46555 38193 ft 448 kts 288°
2026-05-05 09:54 55.92415 -14.57159 38276 ft 451 kts 288°
2026-05-05 09:54 55.93360 -14.62444 38496 ft 450 kts 288°
2026-05-05 09:54 55.94304 -14.67733 38731 ft 448 kts 288°
2026-05-05 09:55 55.95244 -14.73020 38899 ft 448 kts 288°
2026-05-05 09:55 55.96181 -14.78307 39022 ft 448 kts 288°
2026-05-05 09:55 55.97108 -14.83548 39130 ft 449 kts 288°
2026-05-05 09:55 55.98040 -14.88836 39181 ft 449 kts 288°
2026-05-05 09:56 55.99913 -14.99503 39195 ft 450 kts 288°
2026-05-05 09:56 56.02126 -15.09915 39191 ft 449 kts 293°
2026-05-05 09:57 56.04474 -15.20157 39192 ft 448 kts 292°
2026-05-05 09:57 56.06806 -15.30487 39197 ft 449 kts 292°
2026-05-05 09:58 56.09104 -15.40772 39199 ft 448 kts 292°
2026-05-05 09:58 56.11402 -15.51139 39208 ft 449 kts 292°
2026-05-05 09:59 56.13680 -15.61487 39213 ft 450 kts 292°
2026-05-05 09:59 56.15963 -15.71913 39227 ft 449 kts 291°
2026-05-05 10:00 56.18234 -15.82343 39232 ft 450 kts 291°
2026-05-05 10:00 56.20488 -15.92750 39232 ft 449 kts 291°
2026-05-05 10:01 56.22727 -16.03142 39237 ft 449 kts 291°
2026-05-05 10:01 56.24974 -16.13626 39229 ft 449 kts 291°
2026-05-05 10:02 56.27197 -16.24050 39224 ft 449 kts 291°
2026-05-05 10:02 56.29416 -16.34507 39227 ft 449 kts 291°
2026-05-05 10:03 56.31626 -16.44975 39231 ft 450 kts 291°
2026-05-05 10:03 56.33830 -16.55474 39230 ft 450 kts 291°
2026-05-05 10:04 56.36039 -16.66049 39230 ft 450 kts 291°
2026-05-05 10:04 56.38220 -16.76542 39235 ft 449 kts 291°
2026-05-05 10:05 56.40401 -16.87089 39235 ft 449 kts 291°
2026-05-05 10:05 56.42573 -16.97655 39236 ft 449 kts 291°
2026-05-05 10:06 56.44719 -17.08143 39237 ft 449 kts 291°
2026-05-05 10:06 56.46872 -17.18722 39237 ft 449 kts 291°
2026-05-05 10:07 56.49014 -17.29305 39239 ft 449 kts 291°
2026-05-05 10:07 56.51134 -17.39836 39236 ft 449 kts 291°
2026-05-05 10:08 56.53262 -17.50464 39237 ft 450 kts 291°
2026-05-05 10:08 56.55374 -17.61064 39235 ft 449 kts 291°
2026-05-05 10:09 56.57489 -17.71740 39239 ft 450 kts 290°
2026-05-05 10:09 56.59578 -17.82342 39237 ft 449 kts 290°
2026-05-05 10:10 56.61661 -17.92971 39242 ft 449 kts 290°
2026-05-05 10:10 56.63742 -18.03649 39240 ft 449 kts 290°
2026-05-05 10:11 56.65808 -18.14307 39239 ft 449 kts 290°
2026-05-05 10:11 56.67868 -18.24995 39243 ft 450 kts 290°
2026-05-05 10:12 56.69912 -18.35660 39245 ft 449 kts 290°
2026-05-05 10:12 56.71958 -18.46392 39248 ft 450 kts 290°
2026-05-05 10:13 56.73995 -18.57136 39244 ft 450 kts 290°
2026-05-05 10:13 56.76015 -18.67851 39244 ft 450 kts 290°
2026-05-05 10:14 56.78033 -18.78618 39254 ft 450 kts 290°
2026-05-05 10:14 56.80041 -18.89391 39257 ft 449 kts 290°
2026-05-05 10:15 56.82046 -19.00211 39259 ft 450 kts 290°
2026-05-05 10:15 56.84029 -19.10975 39259 ft 450 kts 290°
2026-05-05 10:16 56.86008 -19.21777 39258 ft 450 kts 290°
2026-05-05 10:16 56.87985 -19.32629 39257 ft 451 kts 290°
2026-05-05 10:17 56.89959 -19.43533 39257 ft 451 kts 290°
2026-05-05 10:17 56.91902 -19.54324 39257 ft 451 kts 290°
2026-05-05 10:18 56.93858 -19.65249 39256 ft 452 kts 289°
2026-05-05 10:18 56.95797 -19.76151 39260 ft 451 kts 289°
2026-05-05 10:19 56.97724 -19.87046 39258 ft 450 kts 289°
2026-05-05 10:19 56.99554 -19.98019 39252 ft 452 kts 283°
2026-05-05 10:20 57.00275 -20.09467 39254 ft 454 kts 277°
2026-05-05 10:20 57.00770 -20.20981 39257 ft 455 kts 276°
2026-05-05 10:21 57.01229 -20.32458 39255 ft 454 kts 276°
2026-05-05 10:21 57.01668 -20.44012 39254 ft 454 kts 276°
2026-05-05 10:22 57.02034 -20.54031 39249 ft 454 kts 276°
2026-05-05 10:22 57.02443 -20.65536 39247 ft 454 kts 276°
2026-05-05 10:23 57.02838 -20.77034 39260 ft 454 kts 276°
2026-05-05 10:23 57.03225 -20.88619 39264 ft 455 kts 276°
2026-05-05 10:24 57.03601 -21.00221 39275 ft 457 kts 276°
2026-05-05 10:24 57.03963 -21.11741 39279 ft 456 kts 276°
2026-05-05 10:25 57.04317 -21.23343 39275 ft 456 kts 276°
2026-05-05 10:25 57.04660 -21.34926 39279 ft 456 kts 276°
2026-05-05 10:26 57.04992 -21.46527 39277 ft 456 kts 276°
2026-05-05 10:26 57.05315 -21.58161 39275 ft 456 kts 276°
2026-05-05 10:27 57.05624 -21.69677 39279 ft 456 kts 275°
2026-05-05 10:27 57.05924 -21.81296 39277 ft 455 kts 275°
2026-05-05 10:28 57.06214 -21.92917 39278 ft 456 kts 275°
2026-05-05 10:28 57.06493 -22.04524 39278 ft 456 kts 275°
2026-05-05 10:29 57.06762 -22.16149 39277 ft 456 kts 275°
2026-05-05 10:29 57.07018 -22.27727 39277 ft 456 kts 275°
2026-05-05 10:30 57.07266 -22.39411 39276 ft 456 kts 275°
2026-05-05 10:30 57.07502 -22.51040 39276 ft 457 kts 275°
2026-05-05 10:31 57.07728 -22.62678 39275 ft 457 kts 275°
2026-05-05 10:31 57.07941 -22.74253 39277 ft 458 kts 275°
2026-05-05 10:32 57.08146 -22.85954 39277 ft 458 kts 275°
2026-05-05 10:32 57.08338 -22.97530 39276 ft 456 kts 275°
2026-05-05 10:33 57.08521 -23.09183 39274 ft 456 kts 275°
2026-05-05 10:33 57.08692 -23.20795 39271 ft 457 kts 275°
2026-05-05 10:34 57.08852 -23.32389 39273 ft 457 kts 275°
2026-05-05 10:34 57.09003 -23.44108 39273 ft 457 kts 275°
2026-05-05 10:35 57.09142 -23.55770 39273 ft 458 kts 275°
2026-05-05 10:35 57.09271 -23.67400 39274 ft 458 kts 274°
2026-05-05 10:36 57.09389 -23.79115 39273 ft 459 kts 274°
2026-05-05 10:36 57.09495 -23.90808 39272 ft 459 kts 274°
2026-05-05 10:37 57.09592 -24.02479 39276 ft 458 kts 274°
2026-05-05 10:37 57.09677 -24.14179 39279 ft 459 kts 274°
2026-05-05 10:38 57.09751 -24.25809 39279 ft 458 kts 274°
2026-05-05 10:38 57.09815 -24.37461 39280 ft 458 kts 274°
2026-05-05 10:39 57.09868 -24.49183 39281 ft 458 kts 274°
2026-05-05 10:39 57.09909 -24.60799 39275 ft 457 kts 274°
2026-05-05 10:40 57.09940 -24.72456 39278 ft 458 kts 274°
2026-05-05 10:40 57.09960 -24.84156 39268 ft 458 kts 274°
2026-05-05 10:41 57.09969 -24.95830 39262 ft 457 kts 274°
2026-05-05 10:41 57.09968 -25.07452 39259 ft 458 kts 274°
2026-05-05 10:42 57.09945 -25.24920 39256 ft 458 kts 274°
2026-05-05 10:43 57.09917 -25.36565 39256 ft 457 kts 274°
2026-05-05 10:43 57.09878 -25.48201 39258 ft 457 kts 274°
2026-05-05 10:44 57.09827 -25.59856 39257 ft 456 kts 274°
2026-05-05 10:44 57.09767 -25.71492 39265 ft 457 kts 273°
2026-05-05 10:45 57.09695 -25.83209 39271 ft 458 kts 273°
2026-05-05 10:45 57.09612 -25.94900 39274 ft 458 kts 273°
2026-05-05 10:46 57.09518 -26.06553 39285 ft 459 kts 273°
2026-05-05 10:46 57.09414 -26.18232 39288 ft 459 kts 273°
2026-05-05 10:47 57.09298 -26.29896 39277 ft 457 kts 273°
2026-05-05 10:47 57.09173 -26.41488 39281 ft 457 kts 274°
2026-05-05 10:48 57.09037 -26.53151 39282 ft 458 kts 273°
2026-05-05 10:48 57.08889 -26.64823 39275 ft 457 kts 273°
2026-05-05 10:49 57.08731 -26.76463 39282 ft 459 kts 272°
2026-05-05 10:49 57.08561 -26.88192 39286 ft 460 kts 272°
2026-05-05 10:50 57.08380 -26.99857 39282 ft 459 kts 272°
2026-05-05 10:50 57.08187 -27.11611 39281 ft 458 kts 273°
2026-05-05 10:51 57.07985 -27.23261 39278 ft 457 kts 273°
2026-05-05 10:51 57.07773 -27.34911 39279 ft 457 kts 273°
2026-05-05 10:52 57.07550 -27.46505 39274 ft 457 kts 273°
2026-05-05 10:52 57.07317 -27.58122 39271 ft 456 kts 273°
2026-05-05 10:53 57.07071 -27.69825 39272 ft 458 kts 272°
2026-05-05 10:53 57.06816 -27.81413 39275 ft 457 kts 272°
2026-05-05 10:54 57.06550 -27.93037 39280 ft 457 kts 272°
2026-05-05 10:54 57.06274 -28.04612 39277 ft 455 kts 272°
2026-05-05 10:55 57.05987 -28.16207 39285 ft 456 kts 272°
2026-05-05 10:55 57.05690 -28.27813 39288 ft 456 kts 272°
2026-05-05 10:56 57.05380 -28.39429 39286 ft 455 kts 272°
2026-05-05 10:56 57.05062 -28.51005 39295 ft 455 kts 272°
2026-05-05 10:57 57.04733 -28.62572 39301 ft 454 kts 272°
2026-05-05 10:57 57.04393 -28.74128 39298 ft 455 kts 271°
2026-05-05 10:58 57.04044 -28.85667 39309 ft 455 kts 271°
2026-05-05 10:58 57.03683 -28.97201 39313 ft 453 kts 271°
2026-05-05 10:59 57.03310 -29.08787 39304 ft 453 kts 271°
2026-05-05 10:59 57.02931 -29.20242 39303 ft 452 kts 272°
2026-05-05 11:00 57.02539 -29.31788 39320 ft 453 kts 271°
2026-05-05 11:00 57.02140 -29.43198 39325 ft 452 kts 271°
2026-05-05 11:01 57.01728 -29.54682 39309 ft 451 kts 272°
2026-05-05 11:01 57.01307 -29.66130 39312 ft 451 kts 271°
2026-05-05 11:02 57.00876 -29.77569 39296 ft 452 kts 271°
2026-05-05 11:02 57.00430 -29.89117 39312 ft 450 kts 271°
2026-05-05 11:03 56.99980 -30.00496 39304 ft 448 kts 271°
2026-05-05 11:03 57.00219 -30.11751 39291 ft 443 kts 280°
2026-05-05 11:04 57.00770 -30.22928 39291 ft 444 kts 279°
2026-05-05 11:04 57.01260 -30.34262 39305 ft 445 kts 279°
2026-05-05 11:05 57.01703 -30.45482 39300 ft 444 kts 279°
2026-05-05 11:05 57.02124 -30.56784 39307 ft 443 kts 278°
2026-05-05 11:06 57.02525 -30.68039 39310 ft 444 kts 278°
2026-05-05 11:06 57.02913 -30.79338 39311 ft 443 kts 277°
2026-05-05 11:07 57.03289 -30.90632 39309 ft 444 kts 277°
2026-05-05 11:07 57.03653 -31.01894 39303 ft 444 kts 277°
2026-05-05 11:08 57.04006 -31.13150 39296 ft 442 kts 277°
2026-05-05 11:08 57.04351 -31.24460 39288 ft 444 kts 277°
2026-05-05 11:09 57.04682 -31.35705 39289 ft 443 kts 277°
2026-05-05 11:09 57.05005 -31.46956 39282 ft 444 kts 277°
2026-05-05 11:10 57.05318 -31.58282 39282 ft 444 kts 277°
2026-05-05 11:10 57.05621 -31.69561 39286 ft 445 kts 276°
2026-05-05 11:11 57.05915 -31.80921 39290 ft 445 kts 276°
2026-05-05 11:11 57.06198 -31.92244 39279 ft 445 kts 276°
2026-05-05 11:12 57.06470 -32.03527 39277 ft 446 kts 276°
2026-05-05 11:12 57.06733 -32.14884 39274 ft 446 kts 276°
2026-05-05 11:13 57.06985 -32.26190 39277 ft 448 kts 276°
2026-05-05 11:13 57.07228 -32.37571 39274 ft 447 kts 276°
2026-05-05 11:14 57.07460 -32.48935 39278 ft 447 kts 276°
2026-05-05 11:14 57.07684 -32.60360 39276 ft 447 kts 276°
2026-05-05 11:15 57.07896 -32.71734 39277 ft 448 kts 275°
2026-05-05 11:15 57.08099 -32.83170 39278 ft 449 kts 275°
2026-05-05 11:16 57.08291 -32.94620 39277 ft 449 kts 275°
2026-05-05 11:16 57.08472 -33.06000 39281 ft 450 kts 275°
2026-05-05 11:17 57.08644 -33.17444 39278 ft 450 kts 275°
2026-05-05 11:17 57.08805 -33.28900 39279 ft 449 kts 275°
2026-05-05 11:18 57.08955 -33.40312 39278 ft 450 kts 274°
2026-05-05 11:18 57.09096 -33.51772 39280 ft 450 kts 274°
2026-05-05 11:19 57.09226 -33.63226 39281 ft 449 kts 274°
2026-05-05 11:19 57.09346 -33.74731 39281 ft 452 kts 273°
2026-05-05 11:20 57.09455 -33.86234 39284 ft 453 kts 273°
2026-05-05 11:20 57.09555 -33.97820 39279 ft 452 kts 273°
2026-05-05 11:21 57.09644 -34.09404 39274 ft 451 kts 273°
2026-05-05 11:21 57.09721 -34.20899 39267 ft 452 kts 273°
2026-05-05 11:22 57.09788 -34.32407 39252 ft 451 kts 272°
2026-05-05 11:22 57.09846 -34.44041 39250 ft 453 kts 272°
2026-05-05 11:23 57.09892 -34.55561 39254 ft 453 kts 272°
2026-05-05 11:23 57.09927 -34.67137 39244 ft 454 kts 271°
2026-05-05 11:24 57.09952 -34.78750 39245 ft 456 kts 271°
2026-05-05 11:24 57.09967 -34.90279 39249 ft 454 kts 271°
2026-05-05 11:25 57.09970 -35.01873 39258 ft 454 kts 271°
2026-05-05 11:25 57.09963 -35.13479 39265 ft 455 kts 271°
2026-05-05 11:26 57.09945 -35.25093 39261 ft 455 kts 271°
2026-05-05 11:26 57.09917 -35.36692 39265 ft 455 kts 271°
2026-05-05 11:27 57.09877 -35.48293 39264 ft 457 kts 271°
2026-05-05 11:27 57.09827 -35.59967 39254 ft 458 kts 271°
2026-05-05 11:28 57.09766 -35.71657 39247 ft 459 kts 270°
2026-05-05 11:28 57.09694 -35.83409 39248 ft 458 kts 270°
2026-05-05 11:29 57.09610 -35.95123 39252 ft 457 kts 270°
2026-05-05 11:29 57.09517 -36.06741 39235 ft 459 kts 270°
2026-05-05 11:30 57.09411 -36.18499 39233 ft 461 kts 270°
2026-05-05 11:30 57.09296 -36.30201 39225 ft 461 kts 270°
2026-05-05 11:31 57.09168 -36.41994 39226 ft 462 kts 270°
2026-05-05 11:31 57.09028 -36.53833 39227 ft 462 kts 270°
2026-05-05 11:32 57.08878 -36.65650 39225 ft 463 kts 269°
2026-05-05 11:32 57.08718 -36.77372 39222 ft 464 kts 269°
2026-05-05 11:33 57.08544 -36.89250 39222 ft 465 kts 269°
2026-05-05 11:33 57.08361 -37.01057 39226 ft 465 kts 269°
2026-05-05 11:34 57.08166 -37.12860 39241 ft 464 kts 269°
2026-05-05 11:34 57.07960 -37.24715 39226 ft 466 kts 269°
2026-05-05 11:35 57.07742 -37.36583 39201 ft 467 kts 269°
2026-05-05 11:35 57.07512 -37.48469 39211 ft 468 kts 269°
2026-05-05 11:36 57.07271 -37.60358 39201 ft 467 kts 269°
2026-05-05 11:36 57.07019 -37.72207 39198 ft 468 kts 268°
2026-05-05 11:37 57.06755 -37.84150 39193 ft 467 kts 268°
2026-05-05 11:37 57.06480 -37.96013 39184 ft 469 kts 268°
2026-05-05 11:38 57.06194 -38.07913 39176 ft 470 kts 268°
2026-05-05 11:38 57.05895 -38.19887 39172 ft 470 kts 268°
2026-05-05 11:39 57.05583 -38.31855 39170 ft 472 kts 267°
2026-05-05 11:39 57.05260 -38.43842 39163 ft 473 kts 267°
2026-05-05 11:40 57.04924 -38.55898 39161 ft 474 kts 267°
2026-05-05 11:40 57.04576 -38.67947 39154 ft 473 kts 266°
2026-05-05 11:41 57.04216 -38.80024 39145 ft 475 kts 266°
2026-05-05 11:41 57.03844 -38.92101 39144 ft 475 kts 266°
2026-05-05 11:42 57.03459 -39.04213 39140 ft 476 kts 266°
2026-05-05 11:42 57.03064 -39.16259 39124 ft 477 kts 266°
2026-05-05 11:43 57.02657 -39.28361 39128 ft 477 kts 265°
2026-05-05 11:43 57.02236 -39.40470 39123 ft 479 kts 265°
2026-05-05 11:44 57.01801 -39.52678 39120 ft 480 kts 265°
2026-05-05 11:44 57.01354 -39.64878 39117 ft 482 kts 265°
2026-05-05 11:45 57.00896 -39.77042 39110 ft 481 kts 264°
2026-05-05 11:45 57.00423 -39.89297 39089 ft 482 kts 264°
2026-05-05 11:46 56.99879 -40.01557 39099 ft 482 kts 262°
2026-05-05 11:46 56.99184 -40.13694 39089 ft 483 kts 262°
2026-05-05 11:47 56.98460 -40.25980 39077 ft 485 kts 262°
2026-05-05 11:47 56.97718 -40.38292 39081 ft 484 kts 262°
2026-05-05 11:48 56.96587 -40.56629 39051 ft 486 kts 261°
2026-05-05 11:48 56.95816 -40.68869 39062 ft 486 kts 260°
2026-05-05 11:49 56.95031 -40.81172 39029 ft 487 kts 260°
2026-05-05 11:49 56.94231 -40.93443 39049 ft 489 kts 260°
2026-05-05 11:50 56.93415 -41.05789 39031 ft 489 kts 260°
2026-05-05 11:50 56.92591 -41.18077 39024 ft 489 kts 259°
2026-05-05 11:51 56.91750 -41.30419 39031 ft 489 kts 259°
2026-05-05 11:51 56.90904 -41.42667 39003 ft 488 kts 259°
2026-05-05 11:52 56.90041 -41.54966 38984 ft 489 kts 259°
2026-05-05 11:52 56.89168 -41.67233 38986 ft 489 kts 258°
2026-05-05 11:53 56.88283 -41.79505 38977 ft 487 kts 258°
2026-05-05 11:53 56.87392 -41.91677 38971 ft 489 kts 257°
2026-05-05 11:54 56.86483 -42.03933 38969 ft 489 kts 257°
2026-05-05 11:54 56.85561 -42.16196 38971 ft 488 kts 257°
2026-05-05 11:55 56.84627 -42.28449 38980 ft 488 kts 257°
2026-05-05 11:55 56.83684 -42.40653 38962 ft 489 kts 257°
2026-05-05 11:56 56.82727 -42.52893 38970 ft 490 kts 257°
2026-05-05 11:56 56.81753 -42.65170 38972 ft 491 kts 256°
2026-05-05 11:57 56.80768 -42.77452 38975 ft 490 kts 256°
2026-05-05 11:57 56.79770 -42.89720 38946 ft 491 kts 256°
2026-05-05 11:58 56.78758 -43.02019 38922 ft 491 kts 256°
2026-05-05 11:58 56.77734 -43.14290 38928 ft 492 kts 256°
2026-05-05 11:59 56.76701 -43.26545 38869 ft 491 kts 256°
2026-05-05 11:59 56.75645 -43.38898 38969 ft 495 kts 256°
2026-05-05 12:00 56.74587 -43.51139 38898 ft 492 kts 256°
2026-05-05 12:00 56.73503 -43.63528 38928 ft 494 kts 256°
2026-05-05 12:01 56.72421 -43.75761 38941 ft 492 kts 255°
2026-05-05 12:01 56.71319 -43.88049 38914 ft 495 kts 256°
2026-05-05 12:02 56.70206 -44.00338 38965 ft 493 kts 255°
2026-05-05 12:02 56.69083 -44.12604 38897 ft 493 kts 256°
2026-05-05 12:03 56.67943 -44.24901 38939 ft 492 kts 255°
2026-05-05 12:03 56.66803 -44.37071 38897 ft 492 kts 255°
2026-05-05 12:04 56.65642 -44.49318 38873 ft 494 kts 256°
2026-05-05 12:04 56.64468 -44.61573 38875 ft 492 kts 256°
2026-05-05 12:05 56.63282 -44.73828 38892 ft 493 kts 255°
2026-05-05 12:05 56.62091 -44.85994 38903 ft 493 kts 255°
2026-05-05 12:06 56.60876 -44.98280 38857 ft 492 kts 255°
2026-05-05 12:06 56.59660 -45.10438 38862 ft 495 kts 255°
2026-05-05 12:07 56.58432 -45.22598 38871 ft 494 kts 255°
2026-05-05 12:07 56.57180 -45.34868 38874 ft 493 kts 255°
2026-05-05 12:08 56.55923 -45.47064 38852 ft 494 kts 255°
2026-05-05 12:08 56.54652 -45.59270 38857 ft 493 kts 255°
2026-05-05 12:09 56.53367 -45.71488 38839 ft 494 kts 254°
2026-05-05 12:09 56.52074 -45.83658 38836 ft 494 kts 254°
2026-05-05 12:10 56.50764 -45.95868 38849 ft 493 kts 254°
2026-05-05 12:10 56.49448 -46.08009 38859 ft 494 kts 254°
2026-05-05 12:11 56.48124 -46.20122 38838 ft 492 kts 254°
2026-05-05 12:11 56.46779 -46.32291 38826 ft 494 kts 254°
2026-05-05 12:12 56.45425 -46.44431 38833 ft 495 kts 254°
2026-05-05 12:12 56.44059 -46.56573 38826 ft 495 kts 255°
2026-05-05 12:13 56.42680 -46.68708 38820 ft 494 kts 253°
2026-05-05 12:13 56.41297 -46.80772 38814 ft 492 kts 253°
2026-05-05 12:14 56.39898 -46.92861 38800 ft 491 kts 254°
2026-05-05 12:14 56.38486 -47.04947 38778 ft 495 kts 253°
2026-05-05 12:15 56.37072 -47.16950 38802 ft 493 kts 253°
2026-05-05 12:15 56.35639 -47.29000 38783 ft 493 kts 254°
2026-05-05 12:16 56.34187 -47.41097 38768 ft 494 kts 253°
2026-05-05 12:16 56.32731 -47.53130 38767 ft 494 kts 254°
2026-05-05 12:17 56.31263 -47.65154 38765 ft 494 kts 253°
2026-05-05 12:17 56.29781 -47.77189 38757 ft 493 kts 253°
2026-05-05 12:18 56.28289 -47.89196 38739 ft 494 kts 253°
2026-05-05 12:18 56.26783 -48.01217 38729 ft 494 kts 253°
2026-05-05 12:19 56.25259 -48.13279 38747 ft 494 kts 253°
2026-05-05 12:19 56.23737 -48.25231 38727 ft 494 kts 253°
2026-05-05 12:20 56.22190 -48.37267 38742 ft 494 kts 253°
2026-05-05 12:20 56.20636 -48.49258 38718 ft 494 kts 253°
2026-05-05 12:21 56.19069 -48.61259 38719 ft 494 kts 253°
2026-05-05 12:21 56.17498 -48.73186 38703 ft 492 kts 252°
2026-05-05 12:22 56.15918 -48.85086 38712 ft 493 kts 252°
2026-05-05 12:22 56.14315 -48.97062 38693 ft 493 kts 252°
2026-05-05 12:23 56.12713 -49.08929 38682 ft 494 kts 252°
2026-05-05 12:23 56.11091 -49.20855 38687 ft 494 kts 252°
2026-05-05 12:24 56.09459 -49.32764 38682 ft 494 kts 252°
2026-05-05 12:24 56.07812 -49.44682 38665 ft 493 kts 252°
2026-05-05 12:25 56.06153 -49.56600 38658 ft 494 kts 252°
2026-05-05 12:25 56.04513 -49.68283 38661 ft 495 kts 251°
2026-05-05 12:26 56.02835 -49.80151 38657 ft 492 kts 251°
2026-05-05 12:26 56.01152 -49.91962 38652 ft 494 kts 252°
2026-05-05 12:27 55.98978 -50.03452 38649 ft 489 kts 244°
2026-05-05 12:27 55.96372 -50.14645 38622 ft 490 kts 243°
2026-05-05 12:28 55.93729 -50.25768 38611 ft 489 kts 243°
2026-05-05 12:28 55.91047 -50.36901 38624 ft 488 kts 243°
2026-05-05 12:29 55.88361 -50.47946 38602 ft 488 kts 243°
2026-05-05 12:29 55.85663 -50.58956 38613 ft 488 kts 243°
2026-05-05 12:30 55.82930 -50.70037 38604 ft 488 kts 242°
2026-05-05 12:30 55.80195 -50.81068 38608 ft 488 kts 242°
2026-05-05 12:31 55.77466 -50.92013 38602 ft 488 kts 242°
2026-05-05 12:31 55.74707 -51.03020 38584 ft 487 kts 242°
2026-05-05 12:32 55.71951 -51.13960 38585 ft 487 kts 243°
2026-05-05 12:32 55.69196 -51.24842 38559 ft 488 kts 243°
2026-05-05 12:33 55.66402 -51.35824 38549 ft 489 kts 243°
2026-05-05 12:33 55.63610 -51.46746 38552 ft 488 kts 243°
2026-05-05 12:34 55.60817 -51.57619 38561 ft 487 kts 243°
2026-05-05 12:34 55.58007 -51.68501 38540 ft 487 kts 242°
2026-05-05 12:35 55.55201 -51.79317 38540 ft 487 kts 242°
2026-05-05 12:35 55.52381 -51.90132 38525 ft 487 kts 242°
2026-05-05 12:36 55.49544 -52.00965 38518 ft 487 kts 242°
2026-05-05 12:36 55.46693 -52.11797 38512 ft 487 kts 242°
2026-05-05 12:37 55.43838 -52.22591 38501 ft 487 kts 242°
2026-05-05 12:37 55.40978 -52.33355 38501 ft 485 kts 242°
2026-05-05 12:38 55.38122 -52.44054 38496 ft 485 kts 242°
2026-05-05 12:38 55.35220 -52.54872 38499 ft 485 kts 242°
2026-05-05 12:39 55.32316 -52.65643 38489 ft 485 kts 242°
2026-05-05 12:39 55.29418 -52.76345 38478 ft 485 kts 242°
2026-05-05 12:40 55.26519 -52.86999 38473 ft 484 kts 242°
2026-05-05 12:40 55.23600 -52.97678 38464 ft 484 kts 242°
2026-05-05 12:41 55.20690 -53.08277 38453 ft 484 kts 242°
2026-05-05 12:41 55.17753 -53.18941 38451 ft 483 kts 242°
2026-05-05 12:42 55.14806 -53.29583 38449 ft 484 kts 242°
2026-05-05 12:42 55.11848 -53.40214 38441 ft 485 kts 242°
2026-05-05 12:43 55.08873 -53.50851 38436 ft 484 kts 242°
2026-05-05 12:43 55.05891 -53.61463 38434 ft 484 kts 242°
2026-05-05 12:44 55.02947 -53.71896 38424 ft 483 kts 241°
2026-05-05 12:44 54.99978 -53.82365 38422 ft 484 kts 241°
2026-05-05 12:45 54.96995 -53.92835 38417 ft 485 kts 241°
2026-05-05 12:45 54.93981 -54.03369 38409 ft 484 kts 241°
2026-05-05 12:46 54.90943 -54.13936 38408 ft 483 kts 242°
2026-05-05 12:46 54.87898 -54.24469 38408 ft 485 kts 241°
2026-05-05 12:47 54.84887 -54.34837 38404 ft 483 kts 241°
2026-05-05 12:47 54.81840 -54.45290 38399 ft 483 kts 241°
2026-05-05 12:48 54.78787 -54.55718 38394 ft 484 kts 241°
2026-05-05 12:48 54.75732 -54.66111 38386 ft 483 kts 240°
2026-05-05 12:49 54.72690 -54.76412 38384 ft 483 kts 240°
2026-05-05 12:49 54.69648 -54.86671 38389 ft 483 kts 240°
2026-05-05 12:50 54.66561 -54.97037 38389 ft 483 kts 240°
2026-05-05 12:50 54.63494 -55.07290 38391 ft 483 kts 241°
2026-05-05 12:51 54.60397 -55.17601 38390 ft 483 kts 241°
2026-05-05 12:51 54.57276 -55.27943 38385 ft 483 kts 241°
2026-05-05 12:52 54.54152 -55.38251 38375 ft 482 kts 241°
2026-05-05 12:52 54.51056 -55.48426 38363 ft 482 kts 241°
2026-05-05 12:53 54.47938 -55.58625 38363 ft 482 kts 241°
2026-05-05 12:53 54.44788 -55.68887 38358 ft 483 kts 240°
2026-05-05 12:54 54.40083 -55.84134 38362 ft 482 kts 240°
2026-05-05 12:55 54.36955 -55.94218 38370 ft 481 kts 240°
2026-05-05 12:55 54.33774 -56.04425 38373 ft 482 kts 240°
2026-05-05 12:56 54.30614 -56.14526 38371 ft 481 kts 240°
2026-05-05 12:56 54.27426 -56.24670 38365 ft 481 kts 240°
2026-05-05 12:57 54.24226 -56.34812 38367 ft 481 kts 240°
2026-05-05 12:57 54.21044 -56.44855 38360 ft 481 kts 240°
2026-05-05 12:58 54.17854 -56.54882 38355 ft 481 kts 240°
2026-05-05 12:58 54.14643 -56.64931 38352 ft 481 kts 240°
2026-05-05 12:59 54.11420 -56.74976 38346 ft 480 kts 240°
2026-05-05 12:59 54.08184 -56.85022 38350 ft 481 kts 240°
2026-05-05 13:00 54.03327 -57.00019 38614 ft 483 kts 240°
2026-05-05 13:01 53.98548 -57.15136 39215 ft 482 kts 241°
2026-05-05 13:01 53.96982 -57.20090 39348 ft 483 kts 241°
2026-05-05 13:01 53.93778 -57.30193 39370 ft 483 kts 241°
2026-05-05 13:02 53.90572 -57.40251 39346 ft 481 kts 241°
2026-05-05 13:02 53.87373 -57.50243 39323 ft 481 kts 241°
2026-05-05 13:03 53.84183 -57.60162 39318 ft 482 kts 241°
2026-05-05 13:03 53.80961 -57.70139 39327 ft 482 kts 240°
2026-05-05 13:04 53.77750 -57.80043 39330 ft 481 kts 240°
2026-05-05 13:04 53.74506 -57.90006 39330 ft 481 kts 240°
2026-05-05 13:05 53.71258 -57.99939 39340 ft 481 kts 240°
2026-05-05 13:05 53.68008 -58.09842 39341 ft 480 kts 240°
2026-05-05 13:06 53.64763 -58.19688 39342 ft 481 kts 240°
2026-05-05 13:06 53.61490 -58.29579 39347 ft 481 kts 240°
2026-05-05 13:07 53.58197 -58.39491 39338 ft 480 kts 240°
2026-05-05 13:07 53.54903 -58.49362 39323 ft 480 kts 240°
2026-05-05 13:08 53.51614 -58.59182 39319 ft 480 kts 240°
2026-05-05 13:08 53.48323 -58.68971 39319 ft 480 kts 239°
2026-05-05 13:09 53.45014 -58.78771 39327 ft 480 kts 239°
2026-05-05 13:09 53.41730 -58.88457 39336 ft 480 kts 240°
2026-05-05 13:10 53.38420 -58.98186 39340 ft 480 kts 239°
2026-05-05 13:10 53.35112 -59.07867 39347 ft 479 kts 240°
2026-05-05 13:11 53.31775 -59.17598 39349 ft 479 kts 240°
2026-05-05 13:11 53.28435 -59.27298 39348 ft 479 kts 239°
2026-05-05 13:12 53.25083 -59.36995 39355 ft 479 kts 239°
2026-05-05 13:12 53.21753 -59.46589 39358 ft 479 kts 240°
2026-05-05 13:13 53.18409 -59.56190 39361 ft 479 kts 240°
2026-05-05 13:13 53.15042 -59.65816 39366 ft 479 kts 239°
2026-05-05 13:14 53.11671 -59.75415 39380 ft 479 kts 239°
2026-05-05 13:14 53.08266 -59.85077 39394 ft 479 kts 239°
2026-05-05 13:15 53.04901 -59.94588 39412 ft 477 kts 239°
2026-05-05 13:15 53.01486 -60.04204 39421 ft 477 kts 239°
2026-05-05 13:16 52.98094 -60.13719 39421 ft 476 kts 239°
2026-05-05 13:16 52.94722 -60.23140 39413 ft 477 kts 239°
2026-05-05 13:17 52.91301 -60.32663 39416 ft 477 kts 239°
2026-05-05 13:17 52.87878 -60.42156 39435 ft 478 kts 239°
2026-05-05 13:18 52.84471 -60.51568 39426 ft 476 kts 239°
2026-05-05 13:18 52.81060 -60.60956 39431 ft 475 kts 239°
2026-05-05 13:19 52.77639 -60.70335 39434 ft 475 kts 239°
2026-05-05 13:19 52.74237 -60.79631 39431 ft 474 kts 239°
2026-05-05 13:20 52.70820 -60.88930 39438 ft 474 kts 239°
2026-05-05 13:20 52.67419 -60.98152 39450 ft 474 kts 239°
2026-05-05 13:21 52.63971 -61.07468 39445 ft 474 kts 239°
2026-05-05 13:21 52.60542 -61.16700 39447 ft 474 kts 239°
2026-05-05 13:22 52.57055 -61.26051 39449 ft 473 kts 239°
2026-05-05 13:22 52.53622 -61.35226 39458 ft 473 kts 239°
2026-05-05 13:23 52.50181 -61.44387 39451 ft 472 kts 239°
2026-05-05 13:23 52.46748 -61.53496 39469 ft 471 kts 239°
2026-05-05 13:24 52.43316 -61.62568 39465 ft 471 kts 239°
2026-05-05 13:24 52.39843 -61.71714 39466 ft 472 kts 238°
2026-05-05 13:25 52.36385 -61.80791 39490 ft 471 kts 238°
2026-05-05 13:25 52.32920 -61.89852 39490 ft 472 kts 238°
2026-05-05 13:26 52.29441 -61.98919 39501 ft 470 kts 238°
2026-05-05 13:26 52.25990 -62.07880 39498 ft 469 kts 238°
2026-05-05 13:27 52.22523 -62.16850 39502 ft 470 kts 238°
2026-05-05 13:27 52.19024 -62.25870 39501 ft 470 kts 238°
2026-05-05 13:28 52.15532 -62.34843 39517 ft 470 kts 238°
2026-05-05 13:28 52.12027 -62.43818 39517 ft 469 kts 238°
2026-05-05 13:29 52.08547 -62.52696 39519 ft 470 kts 238°
2026-05-05 13:29 52.04990 -62.61739 39503 ft 468 kts 238°
2026-05-05 13:30 52.01467 -62.70664 39498 ft 468 kts 238°
2026-05-05 13:30 51.97944 -62.79559 39506 ft 468 kts 238°
2026-05-05 13:31 51.94423 -62.88416 39516 ft 468 kts 238°
2026-05-05 13:31 51.90902 -62.97247 39523 ft 468 kts 238°
2026-05-05 13:32 51.87362 -63.06090 39522 ft 467 kts 238°
2026-05-05 13:32 51.83837 -63.14868 39519 ft 467 kts 238°
2026-05-05 13:33 51.80297 -63.23652 39529 ft 465 kts 238°
2026-05-05 13:33 51.76750 -63.32424 39533 ft 466 kts 238°
2026-05-05 13:34 51.73225 -63.41112 39528 ft 466 kts 238°
2026-05-05 13:34 51.69681 -63.49819 39538 ft 466 kts 238°
2026-05-05 13:35 51.66117 -63.58544 39533 ft 467 kts 238°
2026-05-05 13:35 51.62543 -63.67263 39551 ft 465 kts 237°